Tracking 27401 objects as of 4-Jun-2023
HD Live streaming from Space Station
objects crossing your sky now

STARLINK-5256

Track STARLINK-5256 now!
10-day predictions
STARLINK-5256 is classified as:


NORAD ID: 54175
Int'l Code: 2022-141U
Perigee: 546.3 km
Apogee: 547.5 km
Inclination: 53.2 °
Period: 95.4 minutes
Semi major axis: 6917 km
RCS: Unknown
Launch date: October 28, 2022
Source: United States (US)
Launch site: AIR FORCE WESTERN TEST RANGE (AFWTR)
Your satellite tracking list
Your tracking list is empty




NASA's NSSDC Master Catalog

Two Line Element Set (TLE):
1 54175U 22141U   23154.90090008  .00000271  00000-0  35117-4 0  9994
2 54175  53.2163 217.2519 0000888  88.7152 271.3942 15.08836208 33416
Source of the keplerian elements: AFSPC